• Join FlightAware (Why Join?)
  • Login
  • US Flag 
Trick or treat! (Boo!!) 
07:09PM EDT


 

Airport Tracker/Info


-or-


 

Live Flight TrackerFlight Track Log ✈ PDT4155 ✈ 23-Dec-2013 ✈ KBGM - KPHL

Flight Track Log - Related Links

Times and Time Zones

All times are in EST time to prevent confusion due to time zone crossing. See the PDT4155 flight status page for this flight to view local times or setup timezone preferences in your user account.

Time Position Orientation Groundspeed Altitude Reporting Facility
EST Latitude Longitude Course Direction KTS MPH feet Rate Location/Type
07:20AM 42.0596 -75.9309 180° South  Level Estimated
07:21AM 42.0086 -75.9313 180° South  Level FlightAware Approximate
07:22AM 41.9576 -75.9317 180° South  Level FlightAware Approximate
07:23AM 41.9065 -75.9321 180° South  Level FlightAware Approximate
07:24AM 41.8555 -75.9325 180° South  Level FlightAware Approximate
07:25AM 41.8062 -75.9148 154° Southeast  Level Estimated
07:26AM 41.7569 -75.8971 160° South  Level Estimated
07:27AM 41.7075 -75.8794 159° South  Level Estimated
07:28AM 41.6585 -75.8606 164° South  Level FlightAware Approximate
07:29AM 41.6094 -75.8418 164° South  Level FlightAware Approximate
07:30AM 41.5601 -75.8243 153° Southeast  Level Estimated
07:31AM 41.5107 -75.8068 161° South  Level Estimated
07:32AM 41.4630 -75.7826 159° South  Level FlightAware Approximate
07:33AM 41.4153 -75.7584 159° South  Level FlightAware Approximate
07:34AM 41.3676 -75.7343 159° South  Level FlightAware Approximate
07:35AM 41.3181 -75.7176 162° South  Level Estimated
07:36AM 41.2700 -75.6946 160° South  Level FlightAware Approximate
07:37AM 41.2220 -75.6718 160° South  Level FlightAware Approximate
07:38AM 41.1739 -75.6490 160° South  Level FlightAware Approximate
07:39AM 41.1258 -75.6262 160° South  Level FlightAware Approximate
07:40AM 41.0762 -75.6106 159° South  Level Estimated
07:41AM 41.0265 -75.5951 163° South  Level Estimated
07:42AM 40.9784 -75.5725 160° South  Level FlightAware Approximate
07:43AM 40.9303 -75.5499 160° South  Level FlightAware Approximate
07:44AM 40.8822 -75.5273 160° South  Level FlightAware Approximate
07:45AM 40.8340 -75.5048 160° South  Level FlightAware Approximate
07:46AM 40.7841 -75.4909 190° South  Level Estimated
07:47AM 40.7331 -75.4925 181° South  Level FlightAware Approximate
07:47AM 40.7167 -75.6333 190° South 196 226 8,100  Level Philadelphia TRACON
07:48AM 40.6820 -75.4942 181° South  Level FlightAware Approximate
07:48AM 40.6500 -75.6333 180° South 199 229 7,700  Level Philadelphia TRACON
07:49AM 40.6310 -75.4958 181° South  Level FlightAware Approximate
07:49AM 40.6000 -75.6167 166° South 202 232 7,100  Level Philadelphia TRACON
07:50AM 40.5816 -75.4790 187° South  Level Estimated
07:50AM 40.5500 -75.6000 166° South 191 220 7,100  Level Philadelphia TRACON
07:51AM 40.5312 -75.4895 189° South  Level FlightAware Approximate
07:51AM 40.5000 -75.6000 180° South 182 209 7,100  Level Philadelphia TRACON
07:52AM 40.4696 -75.4660 190° South  Level Estimated
07:52AM 40.4500 -75.5500 143° Southeast 216 249 7,100  Level Philadelphia TRACON
07:53AM 40.4167 -75.4833 123° Southeast 207 238 7,100 -60 Level Philadelphia TRACON
07:54AM 40.3833 -75.4167 123° Southeast 209 241 7,000 -60 Descending Philadelphia TRACON
07:55AM 40.3333 -75.3833 153° Southeast 178 205 7,000  Level Philadelphia TRACON
07:56AM 40.3000 -75.3667 159° South 182 209 7,000  Level Philadelphia TRACON
07:57AM 40.2500 -75.3333 153° Southeast 182 209 7,000 -360 Level Philadelphia TRACON
07:58AM 40.2000 -75.3000 153° Southeast 187 215 6,300 -480 Descending Philadelphia TRACON
07:59AM 40.1500 -75.2833 166° South 190 219 6,100 -180 Descending Philadelphia TRACON
08:00AM 40.1000 -75.2667 166° South 188 216 6,000  Descending Philadelphia TRACON
08:01AM 40.0500 -75.2333 153° Southeast 189 217 6,100  Climbing Philadelphia TRACON
08:02AM 40.0000 -75.2167 166° South 188 216 6,000 -300 Descending Philadelphia TRACON
08:03AM 40.0167 -75.1333 75° East 257 296 5,600 -480 Descending Philadelphia TRACON
08:04AM 40.0333 -75.0500 75° East 251 289 5,100 -360 Descending Philadelphia TRACON
08:05AM 40.0500 -74.9667 75° East 240 276 5,000 -300 Descending Philadelphia TRACON
08:06AM 40.0167 -74.9167 131° Southeast 171 197 4,600 -480 Descending Philadelphia TRACON
08:07AM 39.9833 -74.8833 143° Southeast 185 213 4,100 -300 Descending Philadelphia TRACON
08:08AM 39.9500 -74.9333 229° Southwest 164 189 4,100 -120 Level Philadelphia TRACON
08:09AM 39.9333 -74.9667 237° Southwest 137 158 3,900 -480 Descending Philadelphia TRACON
08:10AM 39.9167 -75.0167 247° West 149 171 3,200 -720 Descending Philadelphia TRACON
08:11AM 39.9000 -75.0667 247° West 124 143 2,500 -720 Descending Philadelphia TRACON
08:12AM 39.9000 -75.1167 270° West 109 125 1,800 -660 Descending Philadelphia TRACON
08:13AM 39.8833 -75.1500 237° Southwest 122 140 1,200 -660 Descending Philadelphia TRACON
08:14AM 39.8833 -75.2000 270° West 117 135 500 -720 Descending Philadelphia TRACON